Regional Weather Roundup
Issued by NWS Little Rock, AR

Home | Current Version | Previous Version | Graphics & Text | Print | Product List | Glossary On
Versions: 1 2 3 4 5 6 7 8 9 10 11 12 13 14 15 16 17 18 19 20 21 22 23 24 25 26 27 28 29 30 31 32 33 34 35 36 37 38 39 40 41 42 43 44 45 46 47 48
000
ASUS44 KLZK 021505
RWRLZK

WEATHER ROUNDUP FOR ARKANSAS
NATIONAL WEATHER SERVICE LITTLE ROCK AR
1000 AM CDT SUN AUG 02 2015

NOTE: "FAIR" INDICATES FEW OR NO CLOUDS BELOW 12,000 FEET WITH NO
SIGNIFICANT WEATHER AND/OR OBSTRUCTIONS TO VISIBILITY.

ARZ001-003-010-029-021600-
NORTHWEST ARKANSAS

CITY           SKY/WX    TMP DP  RH WIND       PRES   REMARKS
FAYETTEVILLE   MOSUNNY   81  70  69 S6        30.03S
FORT SMITH     SUNNY     83  67  58 CALM      29.99S HX  85
HARRISON       SUNNY     84  67  56 CALM      30.03S HX  86
BENTONVILLE    MOSUNNY   82  70  65 S3        30.03S HX  86
ROGERS         MOSUNNY   82  70  66 S5        30.03S HX  86
SILOAM SPGS    CLOUDY    81  64  57 SW6       30.01S
HIGHFILL       MOSUNNY   80  71  74 S6        30.03R
SPRINGDALE     MOSUNNY   79  70  73 CALM      30.05R
$$

ARZ004-005-016-021600-
NORTH CENTRAL ARKANSAS

CITY           SKY/WX    TMP DP  RH WIND       PRES   REMARKS
BATESVILLE     SUNNY     86  70  58 SE3       29.99F HX  90
FLIPPIN        SUNNY     79  66  65 CALM      29.99S
MTN HOME       SUNNY     81  68  64 CALM      30.01S
$$

ARZ040-041-021600-
WEST CENTRAL ARKANSAS

CITY           SKY/WX    TMP DP  RH WIND       PRES   REMARKS
MENA           SUNNY     88  66  48 CALM      30.04S HX  90
MOUNT IDA      SUNNY     84  67  56 CALM      30.00S HX  86
$$

ARZ009-017-025-026-028-021600-
NORTHEAST ARKANSAS

CITY           SKY/WX    TMP DP  RH WIND       PRES   REMARKS
JONESBORO      SUNNY     85  69  58 S6        29.98F HX  89
NEWPORT        SUNNY     85  71  62 VRB3      30.01S HX  90
WALNUT RIDGE   SUNNY     84  70  61 CALM      29.98F HX  88
BLYTHEVILLE    MOSUNNY   85  74  69 S8        29.99S HX  92
$$

ARZ022-023-033-042-044-021600-
CENTRAL ARKANSAS

CITY           SKY/WX    TMP DP  RH WIND       PRES   REMARKS
LITTLE ROCK    MOSUNNY   88  69  53 CALM      30.00R HX  92
N LITTLE ROCK  MOSUNNY   89  65  45 S6        30.00R HX  90
JACKSONVILLE   SUNNY     90  64  41 S5        29.99S HX  91
SEARCY         SUNNY     86  71  60 SE5       30.01S HX  91
HOT SPRINGS    SUNNY     86  64  47 CALM      30.01S HX  87
RUSSELLVILLE   SUNNY     84  69  60 CALM      29.99F HX  88
$$

ARZ036-021600-
EAST ARKANSAS

CITY           SKY/WX    TMP DP  RH WIND       PRES   REMARKS
WEST MEMPHIS   SUNNY     86  72  62 SE6       29.98S HX  92
$$

ARZ050-053-066-070-073-021600-
SOUTHWEST ARKANSAS

CITY           SKY/WX    TMP DP  RH WIND       PRES   REMARKS
ARKADELPHIA    FAIR      87  68  53 CALM      30.00S HX  90
CAMDEN         SUNNY     84  66  54 CALM      29.99S HX  86
TEXARKANA      SUNNY     86  65  49 E5        30.00R HX  88
EL DORADO      SUNNY     86  67  52 VRB3      30.00R HX  89
DE QUEEN       SUNNY     85  69  58 VRB3      29.99R HX  89
$$

ARZ056-057-069-021600-
SOUTHEAST ARKANSAS

CITY           SKY/WX    TMP DP  RH WIND       PRES   REMARKS
PINE BLUFF     SUNNY     87  69  54 VRB3      30.00R HX  91
STUTTGART      SUNNY     84  66  54 MISG      30.00S HX  86
MONTICELLO     SUNNY     87  67  51 E7        29.99S HX  90

$$




USA.gov is the U.S. government's official web portal to all federal, state and local government web resources and services.